When you browse on this site, cookies collect data to enhance your experience and personalize the content and advertising you see.
Visit our Privacy Policy to learn more. By continuing to use the site, you agree to this use of cookies and data.
  • In Sweden
  • List of Countries
  • For 7 days
  • Water Temperature
  • Satellite Maps
  • Weather Map
  • Weather Widgets
  • user-avatar
    Login

    Hourly Weather Fleet

    Today, 16 June, Sunday

    Time Temperature Precipitation Wind Pressure Humidity
    00:00 +9°C° 0 mm 3 mps 753 mmHg 94%
    01:00 +9°C° 0 mm 2 mps 753 mmHg 95%
    02:00 +9°C° 0 mm 2 mps 753 mmHg 95%
    03:00 +9°C° 0 mm 2 mps 753 mmHg 95%
    04:00 +10°C° 0 mm 3 mps 753 mmHg 95%
    05:00 +11°C° 0 mm 3 mps 754 mmHg 94%
    06:00 +12°C° 0 mm 4 mps 754 mmHg 93%
    07:00 +13°C° 0.1 mm 4 mps 754 mmHg 92%
    08:00 +13°C° 0.1 mm 5 mps 754 mmHg 92%
    09:00 +13°C° 0.1 mm 5 mps 754 mmHg 91%
    10:00 +14°C° 0.4 mm 6 mps 754 mmHg 89%
    11:00 +15°C° 0.4 mm 7 mps 754 mmHg 86%
    12:00 +16°C° 0.4 mm 9 mps 754 mmHg 84%
    13:00 +17°C° 0.2 mm 8 mps 755 mmHg 81%
    14:00 +17°C° 0.2 mm 8 mps 755 mmHg 78%
    15:00 +17°C° 0.2 mm 8 mps 755 mmHg 75%
    16:00 +17°C° 0 mm 7 mps 755 mmHg 76%
    17:00 +16°C° 0 mm 7 mps 755 mmHg 77%
    18:00 +16°C° 0 mm 6 mps 755 mmHg 79%
    19:00 +14°C° 0 mm 5 mps 755 mmHg 83%
    20:00 +13°C° 0 mm 5 mps 756 mmHg 87%
    21:00 +12°C° 0 mm 4 mps 756 mmHg 91%
    22:00 +11°C° 0 mm 4 mps 756 mmHg 92%
    23:00 +11°C° 0 mm 4 mps 756 mmHg 93%

    Tomorrow, 17 June, Monday

    Time Temperature Precipitation Wind Pressure Humidity
    00:00 +10°C° 0 mm 4 mps 756 mmHg 94%
    01:00 +10°C° 0 mm 3 mps 756 mmHg 94%
    02:00 +10°C° 0 mm 3 mps 755 mmHg 93%
    03:00 +10°C° 0 mm 3 mps 755 mmHg 93%
    04:00 +11°C° 0 mm 3 mps 755 mmHg 90%
    05:00 +12°C° 0 mm 4 mps 756 mmHg 88%
    06:00 +13°C° 0 mm 4 mps 756 mmHg 85%
    07:00 +13°C° 0 mm 5 mps 756 mmHg 83%
    08:00 +14°C° 0 mm 5 mps 756 mmHg 81%
    09:00 +15°C° 0 mm 6 mps 756 mmHg 78%
    10:00 +15°C° 0 mm 6 mps 756 mmHg 77%
    11:00 +16°C° 0 mm 6 mps 756 mmHg 75%
    12:00 +16°C° 0 mm 6 mps 756 mmHg 74%
    13:00 +16°C° 0 mm 6 mps 756 mmHg 74%
    14:00 +16°C° 0 mm 6 mps 755 mmHg 75%
    15:00 +16°C° 0 mm 6 mps 755 mmHg 75%
    16:00 +16°C° 0 mm 5 mps 755 mmHg 77%
    17:00 +15°C° 0 mm 5 mps 755 mmHg 79%
    18:00 +15°C° 0 mm 4 mps 755 mmHg 80%
    19:00 +14°C° 0 mm 3 mps 755 mmHg 84%
    20:00 +12°C° 0 mm 3 mps 755 mmHg 87%
    21:00 +12°C° 0 mm 2 mps 755 mmHg 90%
    22:00 +12°C° 0 mm 2 mps 755 mmHg 91%
    23:00 +10°C° 0 mm 2 mps 755 mmHg 91%

    Day after tomorrow, 18 June, Tuesday

    Time Temperature Precipitation Wind Pressure Humidity
    00:00 +10°C° 0 mm 2 mps 755 mmHg 92%
    01:00 +10°C° 0 mm 1 mps 755 mmHg 92%
    02:00 +10°C° 0 mm 1 mps 754 mmHg 92%
    03:00 +10°C° 0 mm 1 mps 754 mmHg 92%
    04:00 +11°C° 0 mm 1 mps 754 mmHg 90%
    05:00 +12°C° 0 mm 1 mps 754 mmHg 88%
    06:00 +13°C° 0 mm 1 mps 754 mmHg 86%
    07:00 +14°C° 0 mm 1 mps 754 mmHg 82%
    08:00 +16°C° 0 mm 1 mps 754 mmHg 77%
    09:00 +18°C° 0 mm 2 mps 754 mmHg 73%
    10:00 +19°C° 0 mm 2 mps 753 mmHg 73%
    11:00 +20°C° 0 mm 2 mps 753 mmHg 72%
    12:00 +21°C° 0 mm 3 mps 753 mmHg 71%
    13:00 +21°C° 0.8 mm 3 mps 752 mmHg 74%
    14:00 +21°C° 0.8 mm 3 mps 752 mmHg 76%
    15:00 +21°C° 0.8 mm 4 mps 751 mmHg 78%
    16:00 +20°C° 0.8 mm 3 mps 751 mmHg 83%
    17:00 +19°C° 0.8 mm 2 mps 751 mmHg 87%
    18:00 +17°C° 0.8 mm 2 mps 750 mmHg 92%
    19:00 +16°C° 0.1 mm 1 mps 750 mmHg 93%
    20:00 +16°C° 0.1 mm 1 mps 750 mmHg 94%
    21:00 +14°C° 0.1 mm 0 mps 750 mmHg 95%
    22:00 +13°C° 0 mm 0 mps 750 mmHg 96%
    23:00 +14°C° 0 mm 1 mps 749 mmHg 96%

    19 June, Wednesday

    Time Temperature Precipitation Wind Pressure Humidity
    00:00 +14°C° 0 mm 1 mps 749 mmHg 96%
    01:00 +14°C° 0 mm 1 mps 748 mmHg 96%
    02:00 +14°C° 0 mm 1 mps 748 mmHg 96%
    03:00 +14°C° 0 mm 1 mps 747 mmHg 96%
    04:00 +15°C° 0.1 mm 1 mps 747 mmHg 95%
    05:00 +15°C° 0.1 mm 1 mps 746 mmHg 95%
    06:00 +16°C° 0.1 mm 1 mps 746 mmHg 94%
    07:00 +17°C° 0.1 mm 2 mps 746 mmHg 93%
    08:00 +18°C° 0.1 mm 2 mps 746 mmHg 92%
    09:00 +19°C° 0.1 mm 2 mps 746 mmHg 91%
    10:00 +19°C° 0.3 mm 3 mps 746 mmHg 89%
    11:00 +19°C° 0.3 mm 4 mps 745 mmHg 88%
    12:00 +20°C° 0.3 mm 5 mps 745 mmHg 86%
    13:00 +19°C° 0.8 mm 6 mps 746 mmHg 87%
    14:00 +17°C° 0.8 mm 6 mps 746 mmHg 89%
    15:00 +16°C° 0.8 mm 7 mps 746 mmHg 90%
    16:00 +16°C° 0 mm 6 mps 746 mmHg 89%
    17:00 +16°C° 0 mm 5 mps 747 mmHg 87%
    18:00 +17°C° 0 mm 4 mps 747 mmHg 86%
    19:00 +14°C° 0.1 mm 4 mps 748 mmHg 88%
    20:00 +13°C° 0.1 mm 4 mps 748 mmHg 90%
    21:00 +12°C° 0.1 mm 4 mps 749 mmHg 92%
    22:00 +11°C° 0 mm 4 mps 749 mmHg 93%
    23:00 +10°C° 0 mm 4 mps 749 mmHg 94%

    20 June, Thursday

    Time Temperature Precipitation Wind Pressure Humidity
    00:00 +9°C° 0 mm 3 mps 749 mmHg 95%
    01:00 +9°C° 0 mm 3 mps 750 mmHg 95%
    02:00 +8°C° 0 mm 3 mps 750 mmHg 95%
    03:00 +8°C° 0 mm 3 mps 750 mmHg 95%
    04:00 +9°C° 0 mm 3 mps 750 mmHg 94%
    05:00 +10°C° 0 mm 4 mps 750 mmHg 93%
    06:00 +11°C° 0 mm 4 mps 751 mmHg 92%
    07:00 +12°C° 0 mm 4 mps 751 mmHg 86%
    08:00 +13°C° 0 mm 5 mps 751 mmHg 80%
    09:00 +15°C° 0 mm 5 mps 751 mmHg 75%
    10:00 +15°C° 0.1 mm 5 mps 752 mmHg 72%
    11:00 +16°C° 0.1 mm 5 mps 752 mmHg 69%
    12:00 +17°C° 0.1 mm 5 mps 752 mmHg 66%
    13:00 +16°C° 0.4 mm 5 mps 752 mmHg 70%
    14:00 +16°C° 0.4 mm 5 mps 752 mmHg 74%
    15:00 +15°C° 0.4 mm 6 mps 752 mmHg 79%
    16:00 +15°C° 0.1 mm 5 mps 752 mmHg 81%
    17:00 +14°C° 0.1 mm 4 mps 752 mmHg 84%
    18:00 +13°C° 0.1 mm 3 mps 752 mmHg 86%
    19:00 +13°C° 0 mm 3 mps 752 mmHg 88%
    20:00 +12°C° 0 mm 3 mps 752 mmHg 89%
    21:00 +11°C° 0 mm 3 mps 753 mmHg 91%
    22:00 +10°C° 0 mm 3 mps 753 mmHg 92%
    23:00 +10°C° 0 mm 3 mps 753 mmHg 93%

    21 June, Friday

    Time Temperature Precipitation Wind Pressure Humidity
    00:00 +9°C° 0 mm 3 mps 753 mmHg 94%
    01:00 +9°C° 0 mm 3 mps 753 mmHg 94%
    02:00 +9°C° 0 mm 3 mps 753 mmHg 94%
    03:00 +8°C° 0 mm 3 mps 753 mmHg 94%
    04:00 +9°C° 0 mm 3 mps 753 mmHg 92%
    05:00 +10°C° 0 mm 3 mps 753 mmHg 90%
    06:00 +11°C° 0 mm 3 mps 754 mmHg 88%
    07:00 +12°C° 0.1 mm 4 mps 754 mmHg 83%
    08:00 +14°C° 0.1 mm 4 mps 754 mmHg 78%
    09:00 +15°C° 0.1 mm 4 mps 754 mmHg 73%
    10:00 +15°C° 0.3 mm 4 mps 754 mmHg 72%
    11:00 +17°C° 0.3 mm 4 mps 754 mmHg 72%
    12:00 +17°C° 0.3 mm 4 mps 755 mmHg 71%
    13:00 +17°C° 0.3 mm 4 mps 755 mmHg 70%
    14:00 +18°C° 0.3 mm 4 mps 755 mmHg 69%
    15:00 +18°C° 0.3 mm 4 mps 755 mmHg 68%
    16:00 +18°C° 0.3 mm 3 mps 755 mmHg 71%
    17:00 +17°C° 0.3 mm 3 mps 755 mmHg 74%
    18:00 +17°C° 0.3 mm 3 mps 755 mmHg 77%
    19:00 +14°C° 0 mm 3 mps 756 mmHg 81%
    20:00 +14°C° 0 mm 2 mps 756 mmHg 85%
    21:00 +12°C° 0 mm 2 mps 756 mmHg 90%
    22:00 +10°C° 0 mm 2 mps 756 mmHg 90%
    23:00 +11°C° 0 mm 1 mps 757 mmHg 90%
    Show more